AG6V Weather Reports


Display with metric or nautical units.
time (UTC)temp
F
wind
direction
speed
MPH
gust
MPH
rain 1hr
in
rain 24hr
in
rain mn
in
humidity
%
barometer
mb
20260506133029 51 184 0.0 0.0 0.00 0.00 0.00 93 1019.1
20260506131529 51 186 0.0 0.0 0.00 0.00 0.00 93 1019.2
20260506130020 50 194 0.0 0.0 0.00 0.00 0.00 93 1018.9
20260506124517 50 224 0.0 0.0 0.00 0.00 0.00 94 1018.8
20260506123011 50 205 0.0 0.0 0.00 0.00 0.00 94 1018.9
20260506121508 50 167 0.0 0.0 0.00 0.00 0.00 94 1018.6
20260506120011 50 167 0.0 0.0 0.00 0.00 0.00 94 1018.5
20260506114507 50 188 0.0 0.0 0.00 0.00 0.00 95 1018.5
20260506113004 50 194 0.0 0.0 0.00 0.00 0.00 95 1018.5
20260506111502 50 78 0.0 0.0 0.00 0.00 0.00 95 1018.2
20260506110002 50 37 0.0 0.0 0.00 0.00 0.00 95 1018.1
20260506104609 49 37 0.0 0.0 0.00 0.00 0.00 96 1018.0
20260506103105 49 37 0.0 0.0 0.00 0.00 0.00 96 1017.8
20260506101627 49 36 0.0 0.0 0.00 0.00 0.00 96 1017.7
20260506100059 48 36 0.0 0.0 0.00 0.00 0.00 95 1017.6
20260506094558 48 32 0.0 0.0 0.00 0.00 0.00 95 1017.6
20260506093059 49 32 0.0 0.0 0.00 0.00 0.00 95 1017.6
20260506091554 49 215 0.0 0.0 0.00 0.00 0.00 94 1017.5
20260506090104 49 26 0.0 1.0 0.00 0.00 0.00 95 1017.4
20260506084606 49 32 0.0 0.0 0.00 0.00 0.00 94 1017.4
20260506083053 49 106 0.0 0.0 0.00 0.00 0.00 94 1017.5
20260506081549 49 51 0.0 0.0 0.00 0.00 0.00 94 1017.3
20260506073046 49 315 0.0 0.0 0.00 0.00 0.00 93 1017.1
20260506071543 50 315 0.0 0.0 0.00 0.00 0.00 93 1016.9
20260506061537 51 29 0.0 0.0 0.00 0.00 0.00 91 1016.6
20260506060137 51 99 0.0 0.0 0.00 0.00 0.00 91 1016.7
20260506044533 53 139 0.0 0.0 0.00 0.00 0.00 88 1016.1
20260506043034 54 157 0.0 0.0 0.00 0.00 0.00 87 1015.8
20260506041550 54 273 0.0 0.0 0.00 0.00 0.00 86 1015.7
20260506040033 55 273 0.0 0.0 0.00 0.00 0.00 85 1015.6
20260506034547 55 300 0.0 0.0 0.00 0.00 0.00 84 1015.3
20260506033032 56 82 0.0 0.0 0.00 0.00 0.00 83 1015.1
20260506031532 57 182 0.0 0.0 0.00 0.00 0.00 82 1015.1
20260506030036 57 161 0.0 0.0 0.00 0.00 0.00 82 1015.1
20260506024530 58 275 0.0 1.0 0.00 0.00 0.00 81 1015.1
20260506023030 59 163 0.0 0.0 0.00 0.00 0.00 81 1015.1
20260506021530 59 211 0.0 0.0 0.00 0.00 0.00 80 1015.2
20260506020029 60 150 0.0 0.0 0.00 0.00 0.00 79 1015.2
20260506014529 61 251 0.0 0.0 0.00 0.00 0.00 78 1015.2
20260506013038 62 240 0.0 0.0 0.00 0.00 0.00 76 1015.2
20260506011528 64 318 0.0 0.0 0.00 0.00 0.00 75 1015.2
20260506010032 64 38 0.0 0.0 0.00 0.00 0.00 74 1015.1
20260506004526 65 19 0.0 0.0 0.00 0.00 0.00 72 1015.2
20260506003027 68 15 0.0 0.0 0.00 0.00 0.00 69 1015.1
20260506001526 68 15 0.0 0.0 0.00 0.00 0.00 67 1015.3
20260506000025 68 15 0.0 0.0 0.00 0.00 0.00 69 1015.5
20260505234525 70 26 0.0 0.0 0.00 0.00 0.00 65 1015.6
20260505233028 71 28 0.0 0.0 0.00 0.00 0.00 66 1015.7
20260505231520 69 24 0.0 0.0 0.00 0.00 0.00 69 1015.8
20260505230016 67 24 0.0 0.0 0.00 0.00 0.00 72 1015.8
20260505224516 67 5 0.0 0.0 0.00 0.00 0.00 71 1016.1
20260505223012 66 123 0.0 0.0 0.00 0.00 0.00 73 1016.1
20260505221509 65 154 0.0 0.0 0.00 0.00 0.00 73 1016.2
20260505220015 65 305 0.0 0.0 0.00 0.00 0.00 74 1016.2
20260505214505 64 138 0.0 0.0 0.00 0.00 0.00 75 1016.4
20260505213004 64 83 0.0 0.0 0.00 0.00 0.00 74 1016.4
20260505211502 63 188 0.0 0.0 0.00 0.00 0.00 76 1016.5
20260505210106 62 146 0.0 0.0 0.00 0.00 0.00 76 1016.5
20260505204603 62 185 0.0 0.0 0.00 0.00 0.00 77 1016.6
20260505203106 61 162 0.0 0.0 0.00 0.00 0.00 78 1016.5
20260505201553 61 100 0.0 0.0 0.00 0.00 0.00 78 1016.6
20260505194549 60 190 0.0 0.0 0.00 0.00 0.00 80 1016.7
20260505193059 60 134 0.0 0.0 0.00 0.00 0.00 79 1016.5
20260505191544 59 146 0.0 0.0 0.00 0.00 0.00 83 1016.6
20260505190044 59 175 0.0 1.0 0.00 0.00 0.00 82 1016.5
20260505184537 58 115 0.0 0.0 0.00 0.00 0.00 83 1016.5
20260505183037 58 176 0.0 0.0 0.00 0.00 0.00 84 1016.5
20260505181534 57 169 0.0 0.0 0.00 0.00 0.00 85 1016.5
20260505180032 57 148 0.0 0.0 0.00 0.00 0.00 86 1016.3
20260505174527 57 172 0.0 0.0 0.00 0.00 0.00 86 1016.4
20260505173026 57 177 0.0 0.0 0.00 0.00 0.00 86 1016.3
20260505171523 56 175 0.0 0.0 0.00 0.00 0.00 87 1016.3
20260505170029 56 201 0.0 0.0 0.00 0.00 0.00 87 1016.2
20260505164519 56 121 0.0 0.0 0.00 0.00 0.00 89 1016.2
20260505163018 55 118 0.0 0.0 0.00 0.00 0.00 89 1016.2
20260505161533 55 99 0.0 1.0 0.00 0.00 0.00 89 1016.2
20260505153013 54 211 0.0 0.0 0.00 0.00 0.00 91 1016.0
20260505151506 54 120 0.0 1.0 0.00 0.00 0.00 91 1015.9